EDT,Max TemperatureF,Mean TemperatureF,Min TemperatureF,Max Dew PointF,MeanDew PointF,Min DewpointF,Max Humidity, Mean Humidity, Min Humidity, Max Sea Level PressureIn, Mean Sea Level PressureIn, Min Sea Level PressureIn, Max VisibilityMiles, Mean VisibilityMiles, Min VisibilityMiles, Max Wind SpeedMPH, Mean Wind SpeedMPH, Max Gust SpeedMPH,PrecipitationIn, CloudCover, Events, WindDirDegrees
2013-7-1,84,78,73,73,72,70,97,88,67,30.03,29.94,29.84,10,8,1,21,13,32,0.71,7,Rain-Thunderstorm,184
2013-7-2,88,80,73,74,72,71,97,88,61,30.12,30.05,29.99,10,10,8,28,10,38,0.10,7,Rain-Thunderstorm,152
2013-7-3,88,80,73,75,73,71,93,80,57,30.14,30.11,30.08,10,10,10,17,9,23,0.05,6,Thunderstorm,139
2013-7-4,90,82,73,74,72,70,94,79,54,30.20,30.15,30.10,10,10,4,22,12,30,0.09,2,Rain-Thunderstorm,155
2013-7-5,90,82,75,74,72,70,94,75,53,30.19,30.15,30.11,10,10,8,23,10,25,0.00,5,,124
2013-7-6,89,82,75,74,72,70,94,73,57,30.16,30.12,30.07,10,10,9,20,12,22,0.00,3,Rain,126
2013-7-7,89,82,75,74,72,68,94,73,51,30.16,30.13,30.09,10,10,10,15,9,,0.00,4,,128
2013-7-8,90,84,77,75,72,69,94,73,52,30.19,30.15,30.11,10,10,10,14,8,,0.00,4,,119
2013-7-9,91,83,77,75,72,67,94,71,48,30.19,30.14,30.09,10,10,10,13,7,,0.00,4,,132
2013-7-10,90,84,77,74,71,64,90,71,42,30.11,30.06,29.98,10,10,10,14,8,,0.00,5,,141
2013-7-11,91,82,73,74,72,68,94,73,45,30.02,29.96,29.88,10,9,2,40,11,53,0.19,4,Rain-Thunderstorm,176
2013-7-12,86,80,75,76,73,69,91,82,59,29.96,29.92,29.89,10,10,6,13,8,,0.02,6,Rain-Thunderstorm,193
2013-7-13,86,78,71,74,72,68,100,86,63,30.02,29.96,29.91,10,8,1,25,7,31,1.39,6,Rain-Thunderstorm,194
2013-7-14,86,78,73,74,71,69,96,81,61,30.13,30.06,29.99,10,10,10,17,7,,0.00,5,Fog,130
2013-7-15,87,80,75,75,74,72,91,84,65,30.19,30.14,30.10,10,10,4,21,9,25,0.15,5,Rain-Thunderstorm,67
2013-7-16,88,82,77,75,73,71,94,76,57,30.21,30.19,30.15,10,10,10,16,9,,0.00,3,Rain-Thunderstorm,71
2013-7-17,89,83,78,75,72,67,90,72,49,30.21,30.17,30.11,10,10,10,13,8,,0.00,3,,72
2013-7-18,88,82,78,74,72,67,87,73,51,30.14,30.11,30.06,10,10,10,15,6,,0.00,6,,108
2013-7-19,89,82,75,74,72,69,94,79,52,30.13,30.09,30.05,10,8,0,22,8,30,0.55,6,Rain-Thunderstorm,202
2013-7-20,87,78,73,77,72,69,90,81,67,30.11,30.07,30.04,10,9,2,16,8,,0.11,7,Rain-Thunderstorm,192
2013-7-21,91,82,73,76,72,68,94,80,47,30.11,30.06,30.03,10,9,2,22,8,37,0.08,7,Rain-Thunderstorm,220
2013-7-22,91,82,75,75,73,69,96,84,50,30.15,30.08,30.03,10,9,2,26,10,44,0.17,5,Rain-Thunderstorm,231
2013-7-23,89,80,73,76,73,71,93,82,61,30.04,29.98,29.92,10,9,0,18,10,26,0.04,7,Rain-Thunderstorm,237
2013-7-24,88,80,73,75,72,69,94,83,61,29.94,29.89,29.83,10,9,1,16,10,20,0.17,7,Rain,250
2013-7-25,91,82,73,73,71,68,93,74,48,29.96,29.90,29.84,10,10,10,12,8,,0.00,5,,260
2013-7-26,90,82,75,76,74,70,94,77,55,30.02,29.99,29.94,10,10,7,12,5,17,0.00,4,,80
2013-7-27,91,82,73,76,73,65,94,79,53,30.01,29.96,29.88,10,8,1,25,7,44,2.13,6,Rain-Thunderstorm,139
2013-7-28,91,82,75,75,72,65,91,78,45,30.06,29.99,29.93,10,10,8,18,6,34,0.03,6,Rain-Thunderstorm,205
2013-7-29,93,82,73,74,72,68,91,71,47,30.16,30.09,30.04,10,10,10,14,8,,0.00,3,,172
2013-7-30,91,84,78,75,74,71,87,74,61,30.18,30.14,30.11,10,10,10,12,6,18,0.01,5,Rain-Thunderstorm,162
2013-7-31,91,82,72,75,73,71,97,83,55,30.13,30.08,30.05,10,8,0,22,6,36,1.60,6,Fog-Rain-Thunderstorm,169